EXPRESS AM-44

导读

EXPRESS AM-44卫星由独联体(CIS)发射,于2009年2月11日08:00升空。该卫星属于俄罗斯快递系列通信卫星,主要承担通信广播服务任务,覆盖区域主要为俄罗斯及周边地区,为当地民众和机构提供电视转播、数据传输等多元通信支持,是独联体空间通信布局中的重要组成部分。

基本信息
目录编号:
33595
目录名称:
EXPRESS AM-44
国际标识:
2009-007A
轨道中心:
EARTH
卫星名称:
EXPRESS AM-44
卫星全名:
--
卫星状态:
在轨 (已飞行6333 天)
发射日期:
2009-02-11 UTC
国别 :
俄罗斯(独联体) (CIS)
星等 :
--
轨道信息
数据来源 国际轨道数据 AOE轨道数据
星历时间 2026-06-15T03:53:56+0800
9小时前
查看轨道信息
2026-06-15T08:00:00+0800
5小时前
查看轨道信息
半长轴 42164.953km 42165.009km
偏心率 0.0003868 0.0003921
轨道倾角 3.456° 3.458°
近地点辐角 358.873° 358.980°
升交点赤经 78.422° 78.424°
平近点角 113.307° 174.881°
近地点 35770.506km 35770.339km
远地点 35803.126km 35803.405km
周期 1436.108分钟 1436.111分钟
每日圈数 1.00271 1.002708
详细信息
使用方式:
暂无
2D轨道图
3D轨道图
轨道高度分析图
轨道倾角分析图
轨道综合分析图
查看轨道综合分析图